Погода в Эннисе

Ирландия     52°50′30″N   8°59′08″W
В апреле 2022 года жителям России запретили посещать сайт meteo.paraplan.net по решению Генеральной прокуратуры. Аудитория сайта уменьшилась в 10 раз. Владельцы сайта не видят смысла в поддержке погодного сервера в таких условиях. Сайт будет закрыт в октябре.
темп.,
°C
ветер,
м/с
пор.,
м/с
влажн.,
%
обл.,
%
осадки,
мм/ч
давл.,
гПа
погр.,
м
4 октября, вт
вт401:00+16ю61481100 0.0 10091026
04:00+16ю71593100 1.6 10061109
07:00+14зюз2695100 4.1 1008254
10:00+14ююз2595100 0.1 1008308
13:00+15юз41187100 0.9 1007664
16:00+15юз3986100 0.1 1006692
19:00+15ююз41283100 0.3 1003903
22:00+14ю51288100 0.6 1001709
5 октября, ср
ср501:00+13зсз61096100 4.2 1000737
04:00+10з41095100 2.9 1001698
07:00+10зюз51290100 4.0 1002670
10:00+11зюз6128490 2.4 10051032
13:00+10зюз71289100 4.5 10071092
16:00+11зсз9157915 1.3 10101600
19:00+10з613734 1.6 1016807
22:00+11зюз512730 0.0 1020816
6 октября, чт
чт601:00+12юз613776 0.0 1021980
04:00+13зюз7148769 0.2 10211076
07:00+12зюз5129241 0.4 1022739
10:00+14юз5118861 0.2 1023984
13:00+15юз6128154 0.7 10231193
16:00+16юз7138281 0.8 10211200
19:00+14юз71483100 0.9 10201117
22:00+13юз6148175 0.1 1020982
7 октября, пт
пт701:00+14юз71473100 0.1 10181179
04:00+13юз81690100 0.8 10161155
07:00+13зюз81490100 2.4 10151025
10:00+12з612815 0.2 10161157
13:00+14з7127423 0.7 10171236
16:00+13з6107813 0.4 10171112
19:00+11з411796 0.6 1019474
22:00+9зюз36928 0.1 1020152
8 октября, сб
сб801:00+8ююз239684 0.1 102055
04:00+9ююз249699 0.0 101976
07:00+8ююз249613 0.0 101969
10:00+12ююз24855 0.0 1019198
13:00+16ююз346140 0.0 1018939
16:00+16ю456941 0.0 10151026
19:00+13ююв2592100 0.5 1014143
22:00+11ююв3997100 0.0 1013262